Location: Gönnheim
(49.4488°N, 8.2383°E)
Time: 00:06:21
(UTC+00:00)

Lacrosse 5 rocket - Pass Details

Date: 19 May 2025
Orbit: 419 x 515 km, 57.0° (Epoch: 21 June)

Event Time Altitude Azimuth Distance (km) Brightness Sun altitude
Rises 19:46:17 0° 304° (NW) 2,510 7.3 -5.6°
Reaches altitude 10° 19:48:29 10° 308° (NW) 1,613 5.6 -5.8°
Maximum altitude 19:52:04 62° 30° (NNE) 510 1.2 -6.3°
Drops below altitude 10° 19:55:31 10° 112° (ESE) 1,551 3.0 -6.7°
Enters shadow 19:55:55 - 113° (ESE) 1,716 3.2 -6.8°
